www.pogodaiklimat.ru

Погода и климат >> Архив погоды >> Россия >> Приморский край >> Тимирязевский


АРХИВ ПОГОДЫ в Тимирязевском

Время (UTC), дата Ветер
(напр.,м/с)
 
Видим.   Явления Облачность Т
(С)
Тd
(С)
f
(%)
Тe
(С)
Тes
(С)
Комфортность P
(гПа)
Po
(гПа)
Тmin
(С)
Tmax
(С)
R
(мм)
R24
(мм)
S
(см)
15 15.08 СВ 3 10 км слаб. ливневой дождь 10/10 600 м
[Cb cap]
+19.9 +19.5 98 +23 +23 комфорт 995.8 991.8
18 15.08 С 1 10 км слаб. ливневой дождь 10/10 600 м
[Cb cap]
+19.3 +19.0 98 +23 +23 комфорт 994.2 990.2
21 15.08 С 3 10 км слаб. ливневой дождь 10/8 600 м
[Cb cap Ci fib]
+19.2 +18.8 98 +21 +21 комфорт 992.8 988.7 +19.0 25
00 16.08 СЗ 3 10 км слаб. ливневой дождь 10/10 600 м
[Cb cap]
+20.4 +20.0 98 +25 +25 комфорт 991.9 987.9
03 16.08 С 3 4000 м слаб. ливневой дождь 10/10 600 м
[Cb cap]
+20.5 +20.2 98 +25 +25 комфорт 991.8 987.8
06 16.08 С 2 4000 м слаб. ливневой дождь 10/10 300 м
[Cb cap]
+21.7 +21.4 98 +28 +28 душно 990.4 986.4
09 16.08 СЗ 2 4000 м слаб. ливневой дождь 10/10 300 м
[Cb cap]
+21.2 +20.9 98 +27 +27 душно 990.8 986.8 +21.8 27
12 16.08 штиль 0 10 км слаб. ливневой дождь 10/10 300 м
[Cb cap]
+20.8 +20.5 98 +25 +25 комфорт 991.9 987.8
15 16.08 Ю 1 10 км {ливн. осадки} 10/10 300 м
[Sc diur, vesp]
+20.6 +20.3 98 +26 +26 душно 992.3 988.3
18 16.08 Ю 2 10 км {ливн. осадки} 10/10 300 м
[Sc diur, vesp]
+20.8 +20.5 98 +26 +26 душно 992.3 988.3
21 16.08 Ю 4 10 км 10/10 300 м
[St]
+20.6 +20.2 98 +25 +25 комфорт 993.5 989.5 +20.4 12
00 17.08 Ю 4 20 км 10/10 300 м
[St]
+21.8 +20.6 93 +28 +28 душно 994.1 990.1
03 17.08 Ю 7-12
{12}
20 км 10/10 300 м
[St]
+21.7 +19.7 88 +27 +27 душно 995.3 991.3
06 17.08 Ю 6-10
{13}
50 км 8/8 300 м
[Cb cap]
+21.1 +18.7 86 +25 +26 комфорт 995.8 991.7
09 17.08 Ю 4
{13}
50 км 4/4 300 м
[Cb cap]
+20.9 +18.5 86 +25 +26 комфорт 996.6 992.6 +22.7
12 17.08 Ю 4
{11}
50 км 4/4 300 м
[St]
+19.2 +17.8 92 +21 +21 комфорт 999.4 995.4
15 17.08 Ю 3 50 км 8/8 300 м
[Cb cap]
+18.7 +17.5 93 +20 +20 1000.8 996.7
18 17.08 Ю 2 50 км 3/3 300 м
[Sc diur, vesp]
+18.2 +17.3 94 +19 +19 1002.0 997.9
21 17.08 Ю 4 20 км 8/8 600 м
[Cb cap]
+18.7 +17.9 95 +20 +20 1002.9 998.8 +18.1
00 18.08 Ю 3 50 км в посл. час ливневой дождь 10/8 300 м
[Cb cap Ac trans Ci fib]
+19.7 +18.8 95 +23 +23 комфорт 1004.5 1000.5
03 18.08 Ю 4 50 км 8/8 300 м
[Sc diur, vesp]
+21.6 +18.9 85 +26 +29 душно 1005.2 1001.1
06 18.08 Ю 6-12
{12}
20 км 4/4 600 м
[Cb cap]
+22.9 +18.8 78 +29 +31 очень
душно
1005.1 1001.0
09 18.08 Ю 3
{12}
50 км в посл. час ливневой дождь 8/6 600 м
[Cb cap Ac trans]
+21.6 +18.8 84 +26 +27 душно 1005.9 1001.9 +23.3 1
12 18.08 Ю 2 50 км {ливн. осадки} 3/3 300 м
[St]
+18.8 +17.8 94 +21 +21 комфорт 1008.3 1004.2
15 18.08 Ю 4 50 км 4/4 300 м
[St]
+18.4 +17.5 94 +19 +19 1009.7 1005.6
18 18.08 Ю 3 50 км 10/10 300 м
[St]
+18.3 +17.5 95 +19 +19 1010.5 1006.4
21 18.08 Ю 3 20 км 9/9 300 м
[St]
+18.7 +17.5 93 +20 +20 1011.5 1007.4 +17.8
00 19.08 Ю 3 20 км 10/4 300 м
[St Ci fib]
+20.1 +17.8 87 +24 +27 комфорт 1012.6 1008.5
03 19.08 Ю 4 20 км 10/6 300 м
[St Ci fib]
+21.9 +17.9 78 +27 +30 душно 1012.5 1008.4
06 19.08 Ю 5
{11}
20 км 6/3 600 м
[Sc Ci fib]
+22.3 +17.3 73 +27 +30 душно 1011.5 1007.4
09 19.08 Ю 4
{11}
20 км 8/6 600 м
[Cb cap Ci fib]
+19.6 +17.4 87 +22 +22 комфорт 1012.4 1008.3 +22.9
12 19.08 Ю 4 20 км {гроза, ливн. осадки} 10/6 300 м
[Cb cap Ci fib]
+18.2 +17.5 96 +18 +18 1012.8 1008.6
15 19.08 Ю 3 20 км 10/10 300 м
[St]
+17.8 +17.4 98 +18 +18 1013.7 1009.6
18 19.08 Ю 2 20 км 8/8 300 м
[St]
+17.7 +16.9 95 +18 +18 1013.6 1009.4
21 19.08 Ю 2 20 км 10/10 300 м
[St]
+17.7 +17.1 96 +18 +18 1013.8 1009.6 +17.3 0.4
00 20.08 Ю 2 20 км 10/6 300 м
[St Ci sp]
+20.7 +17.7 83 +25 +28 комфорт 1013.4 1009.3
03 20.08 Ю 2 20 км 8/8 1000 м
[Cu med, cong]
+24.1 +17.2 65 +28 +31 душно 1012.8 1008.6
06 20.08 Ю 2 20 км 9/1 1000 м
[Cu hum Ci fib]
+25.4 +18.1 64 +30 +37 душно 1010.9 1006.8
09 20.08 Ю 4 20 км 10/0
[Cs]
+22.5 +18.2 77 +28 +28 душно 1010.9 1006.8 +25.6
12 20.08 Ю 5 20 км 10/5 600 м
[Sc Ac trans Ci fib]
+19.7 +17.9 89 +22 +22 комфорт 1011.7 1007.6
15 20.08 Ю 2 20 км 10/4 600 м
[Sc Ac As]
+18.4 +17.0 92 +20 +20 1011.3 1007.2
18 20.08 Ю 2 20 км 10/4 600 м
[Sc Ac As]
+18.6 +16.9 90 +20 +20 1010.4 1006.3
21 20.08 Ю 2 20 км в посл. час ливневой дождь 10/10 300 м
[Cb cap]
+18.5 +17.3 93 +20 +20 1010.3 1006.2 +18.3 0.0
00 21.08 Ю 3 20 км {ливн. осадки} 10/10 300 м
[Cb cap]
+18.9 +17.5 92 +21 +21 комфорт 1010.4 1006.3
03 21.08 Ю 4 20 км 10/10 300 м
[Sc diur, vesp]
+19.3 +17.1 87 +21 +21 комфорт 1009.4 1005.2
06 21.08 Ю 2 10 км слаб. ливневой дождь 10/10 300 м
[Cb cap]
+18.3 +17.6 96 +19 +19 1008.1 1004.0
09 21.08 Ю 3 10 км слаб. ливневой дождь 10/10 300 м
[Cb cap]
+17.7 +17.3 98 +18 +18 1007.3 1003.2 +20.1 11
12 21.08 Ю 2 10 км {ливн. осадки} 10/10 300 м
[Sc diur, vesp]
+18.0 +17.3 96 +19 +19 1008.2 1004.0
15 21.08 Ю 3 10 км 10/10 300 м
[Sc diur, vesp]
+18.3 +17.7 96 +19 +19 1007.5 1003.4
18 21.08 Ю 2 10 км слаб. ливневой дождь 10/10 300 м
[Cb cap]
+18.4 +18.0 98 +20 +20 1007.0 1002.9
21 21.08 Ю 3 20 км {ливн. осадки} 10/10 300 м
[St]
+18.7 +18.3 98 +20 +20 1007.4 1003.3 +17.7 0.1
00 22.08 Ю 3 20 км {ливн. осадки} 10/10 300 м
[St]
+20.0 +18.9 93 +24 +24 комфорт 1007.0 1002.9
03 22.08 Ю 4 20 км 9/8 300 м
[St Ac trans]
+24.0 +19.4 75 +29 +31 душно 1005.8 1001.8
06 22.08 Ю 5
{10}
20 км 8/6 600 м
[Cb cap Ac trans]
+24.7 +17.7 65 +29 +30 душно 1004.7 1000.7
09 22.08 Ю 2
{11}
20 км 8/8 600 м
[Cb cap Ci fib]
+21.2 +18.3 84 +25 +26 комфорт 1004.3 1000.2 +25.1
12 22.08 Ю 1 20 км 8/8 600 м
[Cb cap]
+19.2 +17.5 90 +22 +22 комфорт 1005.4 1001.3

 

Местоположение метеостанции Тимирязевский (Приморский край, Россия): широта 43.88 долгота 131.90 высота над уровнем моря 36 м.

В архиве по умолчанию представлена погода в Тимирязевском за последнюю неделю. Архивные данные за месяц целиком и за предыдущие месяцы, начиная с января 2011 года, Вы можете получить, выбрав интересующий диапазон дат из раскрывающегося списка и нажав кнопку "Ввод!".


*Определитесь, кто Вы:
робот инопланетянин человек

Внимание! Время в таблицах - всемирное. Для получения местного времени необходимо прибавить поправку, которая равна 10 ч.

Смотрите также архив погоды в соседних городах и на ближайших метеорологических станциях:

Погода в Полтавке (Приморский край, Россия) (51 км)
Погода в Хороле (Приморский край, Россия) (62 км)
Погода в Многоудобном (Приморский край, Россия) (65 км)
Погода в Пограничном (Приморский край, Россия) (75 км)
Погода в Суйфэньхэ (Хэйлунцзян, Китай) (82 км)
Погода в Владивостоке (Приморский край, Россия) (85 км)
Погода в Барабаше (Приморский край, Россия) (86 км)
Погода в Анучино (Приморский край, Россия) (89 км)
Погода на Мысе Назимова (Приморский край, Россия) (92 км)
Погода в Астраханке (Приморский край, Россия) (94 км)

Пояснения к столбцам:

Ветер - указаны скорость ветра в м/с - средняя за 10 мин, порывы в срок и между сроками (в фигурных скобках) и направление, откуда дует ветер: С - северный, СВ - северо-восточный, В - восточный, ЮВ - юго-восточный, Ю - южный, ЮЗ - юго-западный, З - западный, СЗ - северо-западный.
Видимость - горизонтальная дальность видимости в метрах или километрах. При видимости от 1 до 10 км при отсутствии осадков обычно наблюдается дымка, при ухудшении видимости до 1 км и менее - туман. В сухую погоду видимость может ухудшаться дымом, пылью или мглою.
Явления - указаны атмосферные явления, наблюдавшиеся в срок или в последний час перед сроком; фигурными скобками обозначены явления, наблюдавшиеся между сроками (за 1-3 часа до срока); квадратными скобками обозначены град или гололедные отложения с указанием их диаметра в мм.
Облачность - указаны через наклонную черту общая и нижняя облачность в баллах и высота нижней границы облаков в метрах; квадратными скобками обозначены формы облаков: Ci - перистые, Cs - перисто-слоистые, Cc - перисто-кучевые, Ac - высококучевые, As - высокослоистые, Sc - слоисто-кучевые, Ns - слоисто-дождевые, Cu - кучевые, Cb - кучево-дождевые. Подробнее классификацию облаков см. в Атласе облаков (PDF).
T - Температура воздуха - температура, измеренная на высоте 2 м над землей.
Td - Температура точки росы - температура, при понижении до которой содержащийся в воздухе водяной пар достигнет насыщения.
f - Относительная влажность воздуха - влажноcть воздуха, измеренная на высоте 2 м над землей.
Te - Эффективная температура - температура, которую ощущает одетый по сезону человек в тени. Характеристика душности погоды. При расчете учитывается влияние влажности воздуха и скорости ветра на теплоощущения человека.
Tes - Эффективная температура на солнце - температура, которую ощущает человек, с поправкой на солнечный нагрев. Характеристика знойности погоды. Зависит от высоты солнца над горизонтом, облачности и скорости ветра. Ночью, в пасмурную погоду, а также при ветре 12 м/с и более поправка равна нулю.
P - Атмосферное давление - приведенное к уровню моря атмосферное давление.
Po - Атмосферное давление - измеренное на уровне метеостанции атмосферное давление.
Tmin - Минимальная температура - минимум температуры воздуха на высоте 2 м над землей.
Tmax - Максимальная температура - максимум температуры воздуха на высоте 2 м над землей.
R - Количество осадков - Количество выпавших осадков за период времени, мм. При наведении курсора мыши на число - период времени, за который выпало указанное количество осадков.
R24 - Количество осадков - Количество выпавших осадков за 24 часа, мм.
S - Снежный покров - Высота снежного покрова, см. При наведении курсора мыши на число - состояние снежного покрова и степень покрытия местности в баллах.